Location: Leo
(52.0556°N, 112.3605°W)
Time: 23:28:47
(UTC+00:00)

XW-2D - Visible Passes

Search period start: 06 December 2023 00:00
Search period end: 16 December 2023 00:00
Orbit: 454 x 463 km, 97.5° (Epoch: 06 December)

Date Brightness Start Highest point End Pass type
(mag) Time Alt. Az. Time Alt. Az. Time Alt. Az.
06 Dec ? 00:29:02 10° SE 00:32:11 33° ENE 00:35:21 10° N visible
06 Dec ? 02:02:26 10° SSW 02:05:11 22° W 02:07:59 10° NW visible
06 Dec ? 13:19:54 10° NE 13:22:16 17° E 13:24:37 10° SE visible
06 Dec ? 23:57:59 10° ESE 00:00:15 17° ENE 00:02:32 10° NNE visible
07 Dec ? 01:29:29 10° S 01:32:52 49° W 01:36:16 10° NNW visible
07 Dec ? 14:19:46 10° NNE 14:23:17 80° ESE 14:26:45 10° S visible
08 Dec ? 00:57:11 10° SSE 01:00:38 69° ENE 01:04:07 10° N visible
08 Dec ? 02:32:49 10° WSW 02:34:00 11° W 02:35:11 10° WNW visible
08 Dec ? 13:47:46 10° NNE 13:50:58 33° E 13:54:08 10° SSE visible
09 Dec ? 00:25:27 10° SE 00:28:31 30° ENE 00:31:36 10° N visible
09 Dec ? 01:58:35 10° SSW 02:01:28 24° W 02:04:23 10° NW visible
09 Dec ? 13:16:19 10° NE 13:18:29 15° E 13:20:37 10° SE visible
09 Dec ? 23:54:25 10° E 23:56:30 15° ENE 23:58:36 10° NNE visible
10 Dec ? 01:25:38 10° S 01:29:03 55° W 01:32:30 10° NNW visible
10 Dec ? 14:15:56 10° NNE 14:19:25 71° ESE 14:22:52 10° S visible
11 Dec ? 00:53:19 10° SSE 00:56:44 61° ENE 01:00:12 10° N visible
11 Dec ? 02:28:27 10° WSW 02:30:02 13° W 02:31:39 10° WNW visible
11 Dec ? 13:43:53 10° NNE 13:46:59 29° E 13:50:03 10° SSE visible
12 Dec ? 00:21:34 10° SE 00:24:32 27° ENE 00:27:32 10° N visible
12 Dec ? 01:54:26 10° SSW 01:57:26 27° W 02:00:27 10° NW visible
12 Dec ? 13:12:29 10° ENE 13:14:22 14° E 13:16:15 10° ESE visible
12 Dec ? 14:44:12 10° N 14:47:37 54° WNW 14:51:00 10° SSW visible
13 Dec ? 01:21:29 10° S 01:24:56 63° WSW 01:28:24 10° NNW visible
13 Dec ? 14:11:47 10° NNE 14:15:14 62° E 14:18:40 10° S visible
14 Dec ? 00:49:09 10° SSE 00:52:32 54° ENE 00:55:57 10° N visible
14 Dec ? 02:23:52 10° WSW 02:25:46 14° W 02:27:41 10° NW visible
14 Dec ? 13:39:41 10° NE 13:42:41 26° E 13:45:39 10° SSE visible
15 Dec ? 00:17:23 10° ESE 00:20:15 25° ENE 00:23:08 10° N visible
15 Dec ? 01:49:58 10° SSW 01:53:04 30° W 01:56:11 10° NNW visible
15 Dec ? 13:08:25 10° ENE 13:09:57 12° E 13:11:28 10° ESE visible
15 Dec ? 14:39:48 10° N 14:43:14 61° WNW 14:46:39 10° SSW visible
